This is the latest recevied weather packets stored in our database for station/object KD0SBN-3. If no packets are shown the sender has not sent any weather packets the latest 10 day(s).
| Time | Temp. | Humidity | Pressure | Rain* | Wind** | Luminosity | Snow |
|---|---|---|---|---|---|---|---|
| 1777741386 | 7.78° C | 33% | 1031.7 hPa | 0 mm | - | 716 W/m² | - |
| 1777741082 | 9.44° C | 33% | 1031.7 hPa | 0 mm | - | 705 W/m² | - |
| 1777740780 | 8.89° C | 38% | 1031.8 hPa | 0 mm | - | 696 W/m² | - |
| 1777740476 | 8.33° C | 39% | 1031.7 hPa | 0 mm | - | 695 W/m² | - |
| 1777740174 | 6.67° C | 36% | 1031.8 hPa | 0 mm | - | 681 W/m² | - |
| 1777739869 | 7.22° C | 36% | 1031.7 hPa | 0 mm | - | 666 W/m² | - |
| 1777739566 | 8.33° C | 32% | 1031.5 hPa | 0 mm | - | 658 W/m² | - |
| 1777739263 | 7.22° C | 36% | 1031.8 hPa | 0 mm | - | 649 W/m² | - |
| 1777738960 | 7.78° C | 32% | 1031.8 hPa | 1.27 mm | - | 640 W/m² | - |
| 1777738657 | 6.67° C | 36% | 1031.5 hPa | 1.27 mm | - | 627 W/m² | - |
| 1777738353 | 7.78° C | 36% | 1031.4 hPa | 0 mm | - | 621 W/m² | - |
| 1777738052 | 7.22° C | 34% | 1031.7 hPa | 1.78 mm | - | 606 W/m² | - |
| 1777737751 | 6.67° C | 38% | 1031.7 hPa | 1.78 mm | - | 597 W/m² | - |
| 1777737449 | 6.11° C | 37% | 1031.7 hPa | 0 mm | - | 585 W/m² | - |
| 1777737146 | 7.22° C | 37% | 1031.7 hPa | 1.78 mm | - | 573 W/m² | - |
| 1777736842 | 6.67° C | 36% | 1031.5 hPa | 1.78 mm | - | 564 W/m² | - |
| 1777736223 | 5.56° C | 41% | 1031.7 hPa | 0 mm | - | 539 W/m² | - |
| 1777735920 | 5.56° C | 35% | 1031.5 hPa | 1.27 mm | - | 526 W/m² | - |
| 1777735617 | 6.11° C | 41% | 1031.4 hPa | 1.27 mm | - | 514 W/m² | - |
| 1777735314 | 6.67° C | 36% | 1031.5 hPa | 0 mm | - | 500 W/m² | - |
| 1777735012 | 6.67° C | 36% | 1031.7 hPa | 1.78 mm | - | 487 W/m² | - |
| 1777734709 | 6.11° C | 34% | 1031.5 hPa | 1.78 mm | - | 474 W/m² | - |
| 1777734407 | 6.67° C | 35% | 1031.5 hPa | 1.78 mm | - | 460 W/m² | - |
| 1777734103 | 7.22° C | 36% | 1031.5 hPa | 0 mm | - | 443 W/m² | - |
| 1777733799 | 6.67° C | 37% | 1031.5 hPa | 0 mm | - | 429 W/m² | - |
* Rain latest hour (hover to see other rain measurements)
** Current wind speed in m/s (hover to see current wind gust speed)